Location: Unspecified
(40.7945°N, 111.1337°W)
Time: 18:00:14
(UTC-06:00)

Vanguard 1 Rocket - All Passes

Search period start: 26 June 2019 00:00
Search period end: 06 July 2019 00:00
Orbit: 652 x 4224 km, 34.3° (Epoch: 25 June)

Date Brightness Start Highest point End Pass type
(mag) Time Alt. Az. Time Alt. Az. Time Alt. Az.
26 Jun - 13:29:51 10° S 13:44:43 19° SE 13:57:04 10° E daylight
26 Jun - 15:52:26 10° SW 16:14:17 43° SSE 16:27:53 10° E daylight
26 Jun - 18:23:26 10° WSW 18:43:13 63° S 18:53:21 10° E daylight
26 Jun - 20:56:35 10° W 21:10:07 55° SSW 21:17:06 10° ESE daylight
26 Jun - 23:28:41 10° W 23:34:15 19° SW 23:38:17 10° S visible
27 Jun - 12:27:56 10° SE 12:31:15 10° SE 12:34:29 10° ESE daylight
27 Jun - 14:39:34 10° SSW 15:00:35 35° SSE 15:15:31 10° E daylight
27 Jun - 17:08:05 10° SW 17:30:14 58° SSE 17:42:24 10° E daylight
27 Jun - 19:41:13 10° W 19:58:21 64° S 20:06:53 10° ESE daylight
27 Jun - 22:13:56 10° W 22:23:47 35° SSW 22:29:33 10° SSE visible
28 Jun - 13:28:32 10° S 13:46:51 25° SE 14:01:44 10° E daylight
28 Jun - 15:53:29 10° SW 16:16:42 50° SSE 16:30:59 10° E daylight
28 Jun - 18:25:27 10° WSW 18:45:54 66° S 18:56:19 10° E daylight
28 Jun - 20:59:00 10° W 21:12:45 51° SSW 21:19:56 10° SE daylight
28 Jun - 23:32:17 10° WSW 23:36:32 14° SW 23:39:52 10° SSW visible
29 Jun - 12:20:46 10° SSE 12:33:18 16° SE 12:44:49 10° ESE daylight
29 Jun - 14:40:04 10° SSW 15:02:48 41° SSE 15:18:51 10° E daylight
29 Jun - 17:09:49 10° WSW 17:32:46 63° SSE 17:45:23 10° E daylight
29 Jun - 19:43:30 10° W 20:01:02 63° SSW 20:09:48 10° ESE daylight
29 Jun - 22:16:42 10° W 22:26:11 29° SW 22:31:59 10° SSE visible
30 Jun - 13:28:14 10° SSW 13:48:53 32° SE 14:05:35 10° E daylight
30 Jun - 15:54:51 10° SW 16:19:04 57° SSE 16:33:59 10° E daylight
30 Jun - 18:27:34 10° WSW 18:48:32 68° S 18:59:16 10° ESE daylight
30 Jun - 21:01:27 10° W 21:15:18 46° SSW 21:22:38 10° SE daylight
30 Jun - 23:37:30 10° WSW 23:38:41 10° SW 23:39:47 10° SW visible
01 Jul - 12:18:39 10° S 12:35:12 22° SE 12:50:17 10° E daylight
01 Jul - 14:41:00 10° SW 15:04:59 48° SSE 15:21:57 10° E daylight
01 Jul - 17:11:43 10° WSW 17:35:19 67° S 17:48:20 10° E daylight
01 Jul - 19:45:48 10° W 20:03:38 60° SSW 20:12:39 10° ESE daylight
01 Jul - 22:19:36 10° W 22:28:27 24° SW 22:34:08 10° S visible
02 Jul - 11:14:40 10° SE 11:21:57 12° SE 11:29:09 10° ESE daylight
02 Jul - 13:28:36 10° SSW 13:50:50 38° SE 14:09:00 10° E daylight
02 Jul - 15:56:28 10° WSW 16:21:27 62° SSE 16:36:55 10° E daylight
02 Jul - 18:29:45 10° W 18:51:09 68° S 19:02:10 10° ESE daylight
02 Jul - 21:03:57 10° W 21:17:41 40° SW 21:25:13 10° SSE daylight
03 Jul - 12:18:00 10° S 12:36:59 28° SE 12:54:30 10° E daylight
03 Jul - 14:42:17 10° SW 15:07:08 54° SSE 15:24:55 10° E daylight
03 Jul - 17:13:45 10° WSW 17:37:50 70° S 17:51:14 10° E daylight
03 Jul - 19:48:06 10° W 20:06:09 56° SSW 20:15:25 10° SE daylight
03 Jul - 22:22:49 10° W 22:30:34 19° SW 22:35:55 10° S visible
04 Jul - 11:10:23 10° SSE 11:23:38 17° SE 11:36:57 10° E daylight
04 Jul - 13:29:27 10° SSW 13:52:46 45° SSE 14:12:07 10° E daylight
04 Jul - 15:58:18 10° WSW 16:23:49 67° SSE 16:39:48 10° E daylight
04 Jul - 18:31:59 10° W 18:53:42 66° SSW 19:05:01 10° ESE daylight
04 Jul - 21:06:30 10° W 21:19:56 35° SW 21:27:36 10° SSE daylight
05 Jul - 12:18:11 10° SSW 12:38:42 34° SE 12:58:05 10° E daylight
05 Jul - 14:43:52 10° SW 15:09:18 60° SSE 15:27:47 10° E daylight
05 Jul - 17:15:54 10° W 17:40:21 71° S 17:54:06 10° ESE daylight
05 Jul - 19:50:26 10° W 20:08:32 51° SSW 20:18:04 10° SE daylight
05 Jul - 22:26:35 10° W 22:32:32 15° SW 22:37:04 10° SSW visible
